Home > Weather > Cottbus > Past weeks

Flag for Germany Past Weather in Cottbus, Brandenburg, Germany — Yesterday and Last 2 Weeks

Now
75 °F

Scattered showers. Broken clouds.


Feels Like: 78 °F
Forecast: 62 / 78 °F
Wind: 9 mph from West

Location: Holzdorf

Current Time: Jul 29, 2016 at 2:06:42 PM

Latest Report: Jul 29, 2016 at 1:20 PM


Visibility: N/A

Pressure: 29.89 "Hg

Humidity: 54%

Dew Point: 57 °F

Location of CottbusLocation

Past Weather in Cottbus — Graph

°F

Cottbus Temperature Yesterday

Maximum temperature yesterday: 79 °F (at 4:20 PM)
Minimum temperature yesterday: 61 °F (at 12:20 AM)
Average temperature yesterday: 69 °F

High & Low Weather Summary for the Past Weeks

 TemperatureHumidityPressure
High88 °F (Jul 25, 4:20 PM)100% (Jul 16, 1:20 AM)30.27 "Hg (Jul 16, 1:20 AM)
Low46 °F (Jul 16, 2:20 AM)27% (Jul 16, 3:20 PM)29.89 "Hg (Jul 14, 12:20 PM)
Average68 °F71%30.06 "Hg
* Reported Jul 14 12:20 PM — Jul 29 12:20 PM, Cottbus, Weather by CustomWeather, © 2016

Note: Actual official high and low records may vary slightly from our data, if they occured in-between our weather recording intervals... More about our weather records

Advertising

Cottbus Weather History for the Previous 24 Hours

Scroll right to see more
 ConditionsComfort  
Time TempWeatherWind HumidityBarometerVisibility
12:20 PM
Fri, Jul 29
75 °FScattered clouds.9 mph54%29.89 "HgN/A
12:00 PM73 °FScattered clouds.8 mph53%29.92 "HgN/A
11:20 AM73 °FScattered clouds.9 mph57%29.92 "HgN/A
9:20 AM70 °FScattered clouds.8 mph78%29.92 "HgN/A
8:20 AM66 °FPartly sunny.10 mph88%29.92 "HgN/A
7:20 AM64 °FPartly sunny.8 mph94%29.89 "HgN/A
6:20 AM63 °FPassing clouds.5 mph94%29.89 "HgN/A
5:20 AM63 °FPassing clouds.3 mph100%29.89 "HgN/A
4:20 AM64 °FLight rain. Partly cloudy.3 mph94%29.89 "HgN/A
3:20 AM64 °FPassing clouds.6 mph88%29.92 "HgN/A
2:20 AM63 °FPassing clouds.1 mph94%29.92 "HgN/A
1:20 AM66 °FLight rain. Partly cloudy.2 mph83%29.92 "HgN/A
12:20 AM66 °FPassing clouds.3 mph83%29.92 "HgN/A
11:20 PM
Thu, Jul 28
68 °FPassing clouds.3 mph73%29.92 "HgN/A
10:20 PM66 °FPassing clouds.2 mph78%29.92 "HgN/A
9:20 PM70 °FPartly sunny.2 mph69%29.92 "HgN/A
8:20 PM73 °FBroken clouds.1 mph61%29.92 "HgN/A
7:20 PM79 °FPassing clouds.5 mph45%29.92 "HgN/A
6:20 PM79 °FScattered clouds.3 mph48%29.95 "HgN/A
5:20 PM77 °FScattered clouds.5 mph51%29.95 "HgN/A
4:20 PM79 °FPartly sunny.6 mph48%29.98 "HgN/A
3:20 PM77 °FBroken clouds.6 mph51%29.98 "HgN/A
2:20 PM77 °FBroken clouds.6 mph51%30.01 "HgN/A
Weather by CustomWeather, © 2016

See weather overviewHow to use our weather pages